Wind_Speed
5 3 3 4 3 2 1 1 2 1 4 6 6 9 10 12 11 14 13 14 16 15
7 5 4 4 4 3 4 6 7 7 9 11 11 12 15 18 17 17 18 19 18 18
8 7 7 9 9 9 11 12 12 13 16 17 17 17 21 24 25 24 22 27 26 26
11 13 13 14 14 16 17 18 20 21 24 25 26 27 30 34 35 34 32 36 35 32
16 17 18 19 20 20 24 25 27 30 33 35 36 37 39 39 35 40 36 35 30 33
20 22 24 24 24 26 29 32 32 34 34 35 36 35 37 37 38 37 34 33 25 33
21 23 25 28 30 31 33 36 36 35 35 35 35 35 36 38 34 31 31 31 34 30
23 26 28 29 30 31 33 34 33 33 33 32 34 32 34 35 31 30 28 33 34 27
23 25 26 26 25 29 31 29 29 30 30 29 27 22 25 29 27 25 25 26 24 23
18 21 22 20 22 25 25 28 27 26 26 27 24 20 19 21 22 22 21 19 17 17
15 16 16 17 18 19 23 24 23 23 22 24 19 17 17 19 19 19 18 15 16 13
12 14 13 14 15 17 20 21 19 17 18 17 14 12 11 11 12 15 14 13 11 8
11 11 12 14 14 14 14 14 13 14 15 13 12 11 10 10 10 10 7 7 6 8
9 10 10 10 11 11 12 13 13 13 12 13 10 9 10 9 7 7 5 5 5 5
Wind_Direction
356 346 331 4 41 45 51 33 42 96 162 149 172 171 173 165 153 169 159 170 164 147
28 35 43 57 73 65 89 90 102 118 125 120 130 142 133 123 115 125 130 123 128 120
47 58 76 90 84 96 104 107 110 113 108 114 116 120 119 108 105 109 98 102 104 99
59 73 88 93 98 100 105 106 105 103 106 106 105 103 104 97 102 95 90 90 87 87
71 84 88 89 93 97 91 95 95 98 97 96 98 101 100 98 98 97 84 90 86 80
70 75 79 83 92 95 95 89 87 90 86 89 92 90 92 95 92 88 89 90 85 85
67 72 75 79 81 83 88 90 90 88 91 94 98 97 98 97 91 88 87 90 83 77
72 77 77 76 77 79 81 85 88 88 89 92 94 96 102 100 99 95 91 87 85 81
75 75 75 78 81 87 90 87 88 89 88 86 86 87 90 98 93 92 84 82 81 76
77 78 80 84 86 86 87 91 84 82 83 82 81 83 86 92 92 87 81 75 74 70
79 81 83 83 84 87 88 85 83 84 88 86 79 79 80 86 89 88 85 82 77 78
87 93 96 92 92 92 94 90 83 82 81 82 83 81 85 91 89 82 76 72 79 81
102 101 96 94 90 90 88 87 89 84 81 74 75 66 69 73 77 85 91 84 62 47
115 114 111 108 107 110 109 111 108 106 105 107 96 78 63 63 72 68 63 47 24 4
Height
730 728 726 723 722 724 723 723 719 719 719 715 718 719 723 722 724 726 725 733 733 736
730 729 727 724 723 723 724 722 721 722 718 714 719 724 722 722 726 731 734 731 735 735
733 732 730 728 729 729 727 725 725 726 720 722 724 728 728 727 729 736 743 738 741 743
735 733 731 733 734 732 731 730 729 728 727 729 729 731 731 732 736 743 746 744 747 752
737 737 737 737 735 735 733 732 731 730 731 731 733 737 738 742 749 745 747 754 760 755
743 742 742 741 740 739 737 737 737 738 739 741 743 746 747 751 749 751 755 756 770 758
750 748 747 747 746 745 745 744 746 748 749 751 754 755 758 755 763 767 767 768 763 768
756 755 754 753 753 753 753 754 756 757 759 760 760 764 764 763 770 772 776 769 767 782
763 762 761 762 762 762 762 764 766 768 770 771 773 774 772 772 775 779 780 778 780 781
771 770 770 771 771 770 771 772 774 775 777 776 779 782 783 782 784 784 784 785 787 788
777 777 778 779 780 779 778 778 781 783 785 783 787 788 789 788 788 789 789 792 791 795
783 784 785 785 785 784 784 785 786 788 788 790 793 794 794 793 793 791 792 792 796 798
787 788 788 788 788 789 790 790 791 791 792 793 793 793 794 794 794 796 798 800 800 798
792 792 792 793 793 794 795 795 796 796 797 798 800 800 799 799 799 799 800 800 799 799